Snowfall_Accumulation
2.3 2.2 9.6 10.6 10.4 10.9 21.5 13.2 20.2 16.7 13.8 15.7 15.4 17.9 16.6 14.7 12.1 8.1 7.2 8.3 5.2 2.6 1.5 0.6 0.4 0.2 0.2 0.1 0.0 0.0 0.0 0.0 0.0 0.0 0.0 0.0 0.0 0.0 0.0 0.0 0.0 0.0 0.0 0.0
7.6 3.1 5.9 9.4 6.2 7.2 10.7 8.7 11.7 9.9 8.7 10.9 14.6 13.0 12.9 11.4 10.0 9.9 12.6 11.3 6.8 4.4 1.5 0.8 0.7 0.7 0.3 0.1 0.0 0.0 0.0 0.0 0.0 0.0 0.0 0.0 0.0 0.0 0.0 0.0 0.0 0.0 0.0 0.0
7.3 3.2 5.7 12.8 14.9 9.3 9.0 10.5 13.0 17.6 16.4 13.9 13.5 13.0 15.2 14.7 16.3 16.6 18.5 15.7 10.6 5.5 3.4 2.2 1.3 1.0 0.6 0.1 0.0 0.0 0.0 0.0 0.0 0.0 0.0 0.0 0.0 0.0 0.0 0.0 0.0 0.0 0.0 0.0
8.0 4.8 13.5 7.4 4.3 6.3 8.7 9.6 9.7 10.1 12.5 14.0 13.2 10.3 11.8 15.0 21.1 20.1 22.3 17.9 12.9 9.2 4.6 2.1 1.1 0.8 0.6 0.3 0.0 0.0 0.0 0.0 0.0 0.4 0.0 0.0 0.3 0.9 0.7 0.0 1.2 0.6 0.8 6.6
6.3 3.1 1.4 1.0 1.0 2.6 6.5 8.1 5.4 7.2 7.0 7.3 5.6 4.7 4.8 5.1 11.0 18.5 23.6 21.6 18.4 15.5 7.8 3.6 2.4 1.1 0.7 0.3 0.0 0.0 0.5 1.1 0.0 1.0 0.5 0.9 3.8 3.0 7.1 3.5 9.8 6.8 4.9 3.8
4.3 5.2 2.3 1.5 0.1 0.3 1.5 8.1 1.0 5.3 6.9 7.0 5.9 6.4 6.3 7.6 12.4 15.9 19.3 23.3 26.9 17.7 6.1 4.1 1.8 1.0 0.5 0.1 0.0 0.0 0.0 0.0 0.0 0.0 0.1 2.5 6.5 5.9 5.0 5.6 6.1 4.6 2.9 1.6
2.9 4.8 0.8 0.0 0.0 0.2 1.7 3.1 2.7 5.0 7.3 8.0 10.8 13.7 11.1 10.0 10.7 13.6 17.5 22.7 25.0 16.3 5.3 2.9 1.6 1.3 0.5 0.0 0.0 1.2 2.1 2.5 2.6 0.6 1.2 1.3 5.6 4.7 2.9 2.2 2.1 1.3 0.4 0.2
3.1 5.5 2.1 0.0 0.0 0.9 1.9 0.5 2.4 3.6 5.2 8.0 6.1 5.4 5.5 6.3 8.2 12.1 16.3 23.6 28.2 20.9 13.3 9.8 7.0 0.8 1.9 5.4 1.7 1.8 4.7 2.1 4.1 3.1 2.2 1.6 0.2 0.1 2.1 2.2 3.5 2.4 1.9 1.6
1.4 0.3 0.0 0.0 0.0 0.0 0.0 0.9 0.9 3.6 3.0 5.1 3.8 3.3 3.0 4.5 5.7 9.5 14.6 23.3 31.8 33.4 26.9 11.7 7.4 5.9 4.4 6.1 5.4 6.3 4.5 4.8 7.7 7.3 6.1 4.9 3.0 3.4 6.1 5.1 4.8 6.7 4.0 1.6
0.1 0.0 0.0 0.0 0.0 0.0 0.0 0.4 0.3 2.0 3.0 2.2 3.2 1.8 1.6 1.8 4.0 7.1 10.9 20.9 30.0 28.0 23.7 11.9 12.0 13.4 6.6 5.2 4.7 4.4 6.9 7.8 7.4 7.6 7.6 9.9 9.0 7.9 6.7 9.1 8.7 8.1 6.4 6.3
0.2 0.0 0.1 0.0 0.0 0.2 0.1 0.0 0.1 0.2 1.0 2.2 2.3 1.0 1.8 1.6 2.7 5.7 9.2 16.3 25.4 28.2 27.7 19.8 14.6 17.6 13.5 11.2 6.0 7.2 7.8 9.1 9.2 9.4 8.8 8.5 8.8 8.6 8.1 7.6 5.7 5.9 7.7 7.1
0.2 0.0 0.6 0.3 0.1 0.0 0.5 0.7 0.9 1.6 1.1 1.2 2.1 2.3 1.6 1.6 1.9 4.3 7.8 13.0 19.2 25.6 26.5 25.8 21.4 15.2 15.8 10.9 7.2 6.6 7.1 7.3 6.8 6.9 6.8 5.8 5.7 7.4 7.9 6.7 6.5 7.0 7.3 7.8
1.4 0.0 0.2 0.3 0.2 0.3 1.1 0.7 1.4 1.8 2.5 2.9 2.3 2.5 1.7 2.2 2.4 1.8 5.3 9.2 13.3 22.5 28.1 27.1 24.9 17.9 14.9 14.1 5.8 5.1 5.0 4.7 5.5 8.1 7.0 6.1 5.4 4.2 6.9 8.4 6.2 5.7 5.3 5.0
0.3 1.1 1.0 0.6 1.2 0.5 1.1 1.0 1.4 1.8 2.4 2.8 3.4 2.0 2.2 2.4 2.7 2.4 5.8 9.8 9.9 13.8 22.6 24.2 17.7 13.6 10.2 9.4 10.1 8.0 8.2 6.0 5.7 6.5 8.2 7.9 6.7 5.7 3.3 3.6 5.3 6.4 4.3 3.3
1.9 2.0 1.9 1.9 1.2 1.3 1.3 1.1 1.1 2.6 3.1 4.3 4.3 5.6 5.5 5.2 5.6 5.9 5.8 5.1 5.7 7.8 14.1 16.1 13.3 14.2 13.4 8.2 8.7 6.8 8.0 7.9 6.1 7.1 7.6 7.0 6.3 6.3 5.5 4.6 3.5 3.6 4.5 3.9
3.1 2.8 3.1 2.4 2.8 2.7 2.5 2.3 2.3 4.1 4.5 6.3 6.7 8.2 8.1 6.3 5.6 5.3 5.7 4.1 3.5 7.7 10.6 13.5 12.5 14.6 12.5 7.7 3.9 5.0 6.4 6.7 4.6 4.5 5.5 5.9 6.1 5.1 5.6 5.0 3.5 2.7 2.4 3.8
4.5 5.9 3.9 4.0 4.4 4.8 5.4 5.6 5.3 6.2 6.2 6.1 8.4 8.0 5.9 4.5 3.8 3.9 4.9 4.2 3.4 6.1 9.1 9.6 12.2 10.8 10.6 8.3 4.4 2.8 4.7 6.2 4.6 3.5 4.1 5.0 5.6 6.7 5.5 4.9 3.8 3.7 4.0 2.8
9.1 8.8 6.4 6.6 6.7 5.1 5.1 5.3 5.4 4.9 6.3 7.1 6.4 5.0 4.8 4.1 6.3 6.4 7.4 5.4 3.2 3.2 4.6 6.6 7.5 6.4 7.5 7.5 5.9 4.5 2.5 3.9 4.2 4.0 3.5 3.9 4.9 5.8 6.4 7.3 6.4 6.6 5.3 5.5
8.6 7.9 7.4 6.6 5.6 5.1 5.3 5.5 5.3 5.8 6.6 6.3 4.7 6.3 5.8 6.7 6.2 6.1 5.4 2.6 2.4 2.9 5.6 4.3 3.6 3.2 5.3 7.0 6.0 4.9 4.0 4.5 3.2 4.2 3.6 4.0 5.0 5.5 6.0 7.0 7.1 8.4 7.5 7.9
8.5 8.4 6.6 6.0 4.6 3.9 4.7 7.6 5.5 5.5 6.3 4.7 3.1 3.3 2.8 3.6 3.2 3.1 2.0 2.3 4.2 6.0 3.4 4.3 2.4 2.3 3.7 5.3 4.4 4.7 5.7 5.1 6.3 5.0 5.6 6.0 6.7 7.7 8.5 11.4 10.6 10.2 10.5 12.0
5.4 5.3 3.6 2.5 2.8 2.5 2.7 1.6 1.4 1.2 1.3 1.3 0.9 1.4 1.6 1.7 1.1 0.4 1.2 1.4 2.1 3.1 2.6 2.4 2.6 2.8 4.2 5.3 4.3 4.8 6.3 8.1 8.3 12.0 10.8 11.4 10.7 10.9 10.2 9.7 10.8 10.7 12.2 11.6
1.1 0.8 1.3 1.6 1.3 1.1 0.7 0.6 0.5 0.6 0.6 0.6 0.8 0.9 0.4 0.4 0.1 0.1 1.2 3.4 1.6 1.5 1.4 2.3 3.2 5.0 5.3 5.5 5.7 5.8 8.1 10.9 13.8 15.0 15.1 14.4 13.2 10.7 10.3 9.5 11.0 11.4 12.0 12.3
1.2 0.0 0.2 0.2 0.3 0.5 0.5 0.7 0.8 0.8 0.8 0.5 0.6 0.7 1.0 0.7 0.5 1.7 2.7 0.4 0.5 1.7 2.4 3.1 5.1 5.2 4.5 5.3 5.5 7.5 10.0 13.5 14.5 14.2 14.1 14.3 14.0 13.5 13.5 13.5 13.9 13.2 14.7 12.8
1.8 0.5 0.0 0.0 0.2 0.2 0.4 0.7 0.9 1.0 0.8 0.6 0.3 0.5 0.6 0.8 0.3 0.2 0.7 0.8 0.4 2.1 1.4 3.8 5.1 5.1 5.2 6.1 7.8 10.8 12.5 13.6 14.5 14.8 15.0 14.6 13.9 13.6 13.7 13.8 13.1 12.9 12.7 11.2
0.9 0.0 0.3 0.2 0.2 0.5 0.7 1.3 1.0 1.0 0.7 0.6 0.3 0.2 0.1 0.1 0.9 0.4 0.5 0.8 1.1 0.6 0.8 2.6 2.4 2.8 3.5 5.5 8.2 9.9 11.2 12.9 14.2 13.3 13.5 13.1 12.4 11.6 11.3 11.4 11.5 10.5 10.4 9.4
0.7 0.5 0.3 0.1 0.4 1.5 1.4 1.0 1.3 1.3 1.4 1.4 0.7 0.4 0.0 0.1 0.1 0.3 0.6 1.3 0.9 1.3 1.7 2.5 2.0 3.4 4.9 6.2 7.0 8.1 8.8 9.9 11.0 11.6 10.8 10.7 9.8 9.1 8.6 7.9 8.3 8.4 8.3 8.5
0.0 0.0 0.1 0.8 0.2 0.0 0.4 0.8 1.7 1.6 1.0 1.1 1.0 0.1 0.2 0.1 0.2 0.8 1.2 1.0 0.7 1.1 1.6 2.9 3.5 4.9 5.1 5.7 5.7 5.9 6.2 6.6 7.6 7.3 7.6 7.5 7.4 7.1 7.2 6.7 6.3 6.3 6.3 5.8